[[{"header":{"parameterUnit":"m.s-1","parameterCategory":1,"la1":30.2991,"la2":30.254,"lo1":-89.0895,"lo2":-89.0444,"dy":0.0017,"dx":0.0017,"nx":28,"ny":28,"refTime":"2024-05-02T03:00:00:Z","depth":0,"parameterNumber":2,"parameterNumberName":"U-component_of_WINDS"},"data":[0,0,0,0,0,0,0,0,0,0,0,0,0,0,0,0,0,0,0,0,0,0,0,0,0,0,0,0,0,0,0,0,0,0,0,0,0,0,0,0,0,0,0,0,0,0,0,0,0,0,0,0,0,0,0,0,0,0,-4.3428,-4.3428,0,-4.3474,-4.3475,-4.3475,-4.3413,-4.3411,-4.3409,-4.3407,-4.3452,-4.3455,-4.3458,0,0,0,0,0,0,0,0,0,0,0,0,0,-4.3284,-4.3287,-4.3428,-4.3429,-4.3429,-4.3474,-4.3475,-4.3476,-4.3414,-4.3411,-4.3408,-4.3406,-4.3451,-4.3455,-4.3459,0,0,0,0,0,0,0,0,0,0,0,0,0,-4.334,-4.3288,-4.3428,-4.3404,-4.3402,-4.3474,-4.3475,-4.3476,-4.3414,-4.3411,-4.3408,-4.3404,-4.345,-4.3454,-4.3459,-4.3556,0,0,-4.3474,-4.3476,0,0,0,0,0,0,0,0,-4.3337,-4.3345,-4.3407,-4.3406,-4.3404,-4.3435,-4.3441,-4.3503,-4.3415,-4.341,-4.3407,-4.3403,-4.3449,-4.3454,-4.3469,-4.3559,-4.356,-4.3475,-4.3478,-4.348,-4.3481,0,0,0,0,0,0,0,-4.3333,-4.3343,-4.3446,-4.3408,-4.3406,-4.339,-4.3394,-4.3452,-4.3447,-4.341,-4.3405,-4.3412,-4.3447,-4.3465,-4.347,-4.3561,-4.3475,-4.3479,-4.3482,-4.3484,-4.3732,-4.3735,0,0,0,0,0,0,-4.3332,-4.334,-4.3445,-4.3448,-4.3362,-4.3395,-4.34,-4.3428,-4.3446,-4.3446,-4.3415,-4.3409,-4.3458,-4.3464,-4.3471,-4.3585,-4.348,-4.3484,-4.3487,-4.3728,-4.3733,-4.3737,0,0,0,0,0,0,-4.333,-4.3342,-4.3443,-4.3393,-4.3404,-4.3401,-4.3433,-4.3431,-4.3448,-4.345,-4.3449,-4.3434,-4.3456,-4.3465,-4.3536,-4.3586,-4.3487,-4.3491,-4.3724,-4.373,-4.3735,-4.3815,0,0,0,0,0,0,-4.3326,-4.3342,-4.3379,-4.3394,-4.3407,-4.3507,-4.3436,-4.3434,-4.3457,-4.345,-4.3468,-4.3467,-4.3454,-4.3529,-4.3541,-4.3591,-4.3495,-4.3719,-4.3727,-4.3733,-4.3807,-4.3822,-4.3835,0,0,0,0,0,-4.3321,-4.3399,-4.3381,-4.3394,-4.3454,-4.351,-4.3517,-4.3501,-4.3462,-4.3498,-4.35,-4.3467,-4.358,-4.3537,-4.355,-4.3602,-4.3716,-4.3724,-4.3732,-4.3801,-4.3819,-4.3835,0,0,0,0,0,0,-4.3388,-4.34,-4.3381,-4.3466,-4.3488,-4.3499,-4.3545,-4.3521,-4.3553,-4.3545,-4.3523,-4.3527,-4.3603,-4.361,-4.3562,-4.3697,-4.3641,-4.3652,-4.3689,-4.3706,-4.372,-4.3715,-4.3499,0,0,0,0,0,-4.3414,-4.3459,-4.3467,-4.3542,-4.3554,-4.3548,-4.3572,-4.3558,-4.3579,-4.3587,-4.3594,-4.3615,-4.3655,-4.3681,-4.3718,-4.3809,-4.3812,-4.3852,-4.3866,-4.3877,-4.3886,-4.3934,-4.3951,-4.3764,-4.3763,-4.3763,0,0,-4.3465,-4.3477,-4.3507,-4.3556,-4.357,-4.3617,-4.3556,-4.3608,-4.3642,-4.3595,-4.3662,-4.3668,-4.369,-4.3772,-4.3808,-4.378,-4.3939,-4.3887,-4.3896,-4.3899,-4.3944,-4.3962,-4.3977,-4.3769,-4.3768,-4.3767,0,0,-4.3582,-4.3597,-4.3661,-4.3678,-4.3701,-4.3698,-4.3713,-4.3729,-4.3732,-4.38,-4.3765,-4.3805,-4.3875,-4.3892,-4.391,-4.4036,-4.4006,-4.4049,-4.4119,-4.4166,-4.4181,-4.4194,-4.4237,-4.4253,-4.4059,-4.4059,-4.4059,0,-4.3643,-4.3713,-4.3696,-4.3751,-4.3773,-4.3734,-4.3798,-4.3815,-4.3849,-4.3865,-4.3834,-4.3921,-4.3933,-4.4017,-4.4049,-4.4065,-4.4081,-4.4045,-4.418,-4.4193,-4.4205,-4.4246,-4.4263,-4.4064,-4.4063,-4.4063,-4.4062,0,-4.3785,-4.3834,-4.3883,-4.3918,-4.3946,-4.4005,-4.3997,-4.4027,-4.4012,-4.4011,-4.408,-4.4094,-4.4133,-4.4153,-4.4138,-4.4236,-4.4217,-4.4184,-4.4127,-4.4228,-4.4266,-4.4282,-4.4071,-4.4069,-4.4068,-4.4066,0,0,-4.3943,-4.3971,-4.3988,-4.4004,-4.4029,-4.4066,-4.4123,-4.4162,-4.4188,-4.4214,-4.4261,-4.4322,-4.4291,-4.4312,-4.4299,-4.434,-4.4438,-4.4302,-4.4302,-4.4324,-4.4545,-4.4568,-4.4586,-4.442,-4.4423,-4.4425,-4.4542,0,-4.4059,-4.4159,-4.4147,-4.4242,-4.4286,-4.4251,-4.4301,-4.4322,-4.4323,-4.4361,-4.4363,-4.4406,-4.4363,-4.4375,-4.4415,-4.4417,-4.4481,-4.4409,-4.4461,-4.4463,-4.4454,-4.4606,-4.463,-4.474,-4.4557,-4.456,-4.4561,0,-4.4207,-4.4239,-4.4339,-4.4357,-4.4375,-4.442,-4.4455,-4.4492,-4.4515,-4.4513,-4.4537,-4.4517,-4.4574,-4.4519,-4.4596,-4.4548,-4.4569,-4.4574,-4.4577,-4.4579,-4.4516,-4.461,-4.4775,-4.479,-4.4585,-4.4583,-4.4582,0,-4.4309,-4.4378,-4.4446,-4.4461,-4.4484,-4.4517,-4.4528,-4.4548,-4.4572,-4.4603,-4.4618,-4.4656,-4.4676,-4.4705,-4.4695,-4.4656,-4.4774,-4.4718,-4.4773,-4.4773,-4.4797,-4.4795,-4.4965,-4.4815,-4.4815,-4.4815,-4.4814,0,-4.4438,-4.45,-4.4493,-4.4534,-4.4603,-4.4589,-4.4657,-4.4663,-4.4682,-4.4723,-4.4697,-4.4736,-4.4723,-4.4762,-4.4755,-4.4819,-4.4829,-4.4828,-4.4825,-4.4829,-4.4829,-4.484,-4.4831,-4.4819,-4.4818,-4.4817,-4.4817,0,-4.4562,-4.4561,-4.4632,-4.465,-4.4656,-4.4705,-4.4719,-4.4758,-4.4759,-4.4813,-4.4824,-4.4825,-4.487,-4.4864,-4.4914,-4.4909,-4.4989,-4.4978,-4.4981,-4.4978,-4.5032,-4.5026,-4.5213,-4.5236,-4.5074,-4.5076,-4.5077,0,-4.4643,-4.469,-4.4713,-4.474,-4.4754,-4.4797,-4.4822,-4.4811,-4.4838,-4.4869,-4.4904,-4.4946,-4.4979,-4.5053,-4.5057,-4.5095,-4.5083,-4.5146,-4.5088,-4.5091,-4.5081,-4.5077,-4.5081,-4.5156,-4.5158,-4.516,-4.5161,0,-4.4786,-4.4784,-4.4821,-4.4859,-4.489,-4.492,-4.4946,-4.4969,-4.4961,-4.4993,-4.5039,-4.5065,-4.5116,-4.5158,-4.5194,-4.5205,-4.5181,-4.518,-4.5194,-4.5197,-4.5196,-4.5195,-4.5009,-4.5175,-4.5173,-4.5172,-4.5171,-4.5171,-4.489,-4.493,-4.4952,-4.4995,-4.5014,-4.504,-4.5077,-4.5084,-4.5122,-4.5163,-4.5155,-4.5206,-4.5228,-4.5274,-4.5289,-4.5329,-4.5306,-4.5327,-4.5332,-4.5336,-4.5342,-4.5192,-4.5336,-4.5336,-4.5335,-4.5335,-4.5335,0,-4.5029,-4.5043,-4.5083,-4.5121,-4.5155,-4.5132,-4.516,-4.519,-4.5236,-4.5259,-4.5293,-4.5345,-4.5387,-4.5395,-4.5435,-4.5465,-4.5455,-4.5475,-4.5471,-4.5474,-4.5361,-4.5344,-4.5482,-4.5482,-4.5482,-4.5482,-4.5482,-4.5482,-4.5106,-4.5172,-4.5172,-4.5247,-4.526,-4.531,-4.5328,-4.5352,-4.537,-4.543,-4.5465,-4.5471,-4.5488,-4.5529,-4.5565,-4.5567,-4.5581,-4.5606,-4.5603,-4.5497,-4.5482,-4.5467,-4.5451,-4.561,-4.561,-4.5711,-4.5712,-4.5713]},{"header":{"parameterUnit":"m.s-1","parameterCategory":1,"la1":30.2991,"la2":30.254,"lo1":-89.0895,"lo2":-89.0444,"dy":0.0017,"dx":0.0017,"nx":28,"ny":28,"refTime":"2024-05-02T03:00:00:Z","depth":0,"parameterNumber":3,"parameterNumberName":"V-component_of_WINDS"},"data":[0,0,0,0,0,0,0,0,0,0,0,0,0,0,0,0,0,0,0,0,0,0,0,0,0,0,0,0,0,0,0,0,0,0,0,0,0,0,0,0,0,0,0,0,0,0,0,0,0,0,0,0,0,0,0,0,0,0,2.3404,2.3405,0,2.3507,2.3508,2.351,2.3557,2.3557,2.3557,2.3557,2.3657,2.366,2.3662,0,0,0,0,0,0,0,0,0,0,0,0,0,2.3244,2.3247,2.3404,2.3405,2.3407,2.3507,2.3508,2.351,2.3557,2.3557,2.3557,2.3557,2.3656,2.3659,2.3663,0,0,0,0,0,0,0,0,0,0,0,0,0,2.3327,2.3248,2.3404,2.3442,2.3447,2.3507,2.3508,2.351,2.3557,2.3557,2.3557,2.3557,2.3655,2.3659,2.3663,2.3691,0,0,2.3676,2.3677,0,0,0,0,0,0,0,0,2.3322,2.3333,2.3436,2.344,2.3445,2.3519,2.3489,2.3571,2.3557,2.3515,2.3557,2.3557,2.3611,2.3619,2.3638,2.3695,2.37,2.3676,2.3678,2.368,2.3681,0,0,0,0,0,0,0,2.3316,2.3328,2.3445,2.3437,2.3443,2.3453,2.3465,2.3505,2.3562,2.3519,2.3522,2.3534,2.3613,2.3634,2.3641,2.3701,2.3676,2.368,2.3682,2.3684,2.3787,2.3787,0,0,0,0,0,0,2.3305,2.3323,2.3442,2.3448,2.3382,2.3456,2.3469,2.3495,2.3562,2.3572,2.3534,2.3536,2.3627,2.3636,2.3644,2.3682,2.368,2.3684,2.3686,2.3787,2.3787,2.3787,0,0,0,0,0,0,2.3301,2.3315,2.3437,2.3387,2.3403,2.3459,2.3488,2.3497,2.3518,2.3574,2.3584,2.3545,2.3627,2.3639,2.3679,2.3686,2.3686,2.369,2.3787,2.3787,2.3787,2.3757,0,0,0,0,0,0,2.3297,2.3313,2.3326,2.3387,2.3406,2.3472,2.3489,2.35,2.3526,2.3529,2.3586,2.3596,2.3628,2.3673,2.3683,2.3692,2.3693,2.3786,2.3787,2.3787,2.3758,2.3756,2.3755,0,0,0,0,0,2.3291,2.3312,2.3326,2.334,2.3422,2.3472,2.3483,2.3521,2.3526,2.3538,2.3574,2.3594,2.3684,2.3677,2.3689,2.3699,2.3786,2.3787,2.3787,2.3758,2.3757,2.3755,0,0,0,0,0,0,2.3248,2.332,2.3337,2.3379,2.3419,2.348,2.3497,2.3518,2.3557,2.3558,2.3602,2.3615,2.3652,2.3679,2.367,2.3729,2.3736,2.374,2.371,2.3709,2.3708,2.3701,2.3696,0,0,0,0,0,2.3244,2.328,2.334,2.3371,2.3391,2.344,2.3463,2.3489,2.3532,2.3549,2.3588,2.3628,2.3665,2.3688,2.3726,2.3762,2.3775,2.3774,2.3773,2.3772,2.3774,2.3796,2.3796,2.379,2.379,2.379,0,0,2.3235,2.3279,2.3298,2.3364,2.3398,2.3434,2.3454,2.349,2.3517,2.3554,2.3596,2.3626,2.3673,2.3711,2.373,2.3735,2.3779,2.3773,2.3771,2.3774,2.3796,2.3797,2.3798,2.379,2.379,2.379,0,0,2.3237,2.3273,2.3304,2.3338,2.3391,2.3424,2.3431,2.3489,2.3511,2.3554,2.3583,2.3614,2.3677,2.371,2.3735,2.3749,2.3769,2.376,2.3754,2.3774,2.3775,2.3776,2.3782,2.3783,2.3762,2.3762,2.3762,0,2.3218,2.3274,2.3316,2.3352,2.3379,2.3417,2.3448,2.3478,2.3539,2.3557,2.3562,2.3643,2.3677,2.3725,2.3729,2.3747,2.3756,2.3754,2.3772,2.3773,2.3774,2.378,2.3782,2.376,2.3761,2.3761,2.3761,0,2.325,2.3288,2.3306,2.3367,2.3396,2.3429,2.3474,2.3499,2.3522,2.3554,2.3597,2.364,2.3687,2.37,2.3722,2.375,2.3752,2.3764,2.3772,2.3773,2.3779,2.3782,2.3759,2.3759,2.3759,2.376,0,0,2.3228,2.3312,2.3318,2.3346,2.3407,2.3437,2.3471,2.3519,2.3539,2.358,2.3609,2.3662,2.3674,2.3702,2.3728,2.3746,2.3756,2.3756,2.3758,2.3755,2.3791,2.3782,2.3784,2.3769,2.377,2.377,2.3787,0,2.3239,2.3304,2.3343,2.3391,2.3427,2.3463,2.3492,2.3532,2.3563,2.3596,2.3629,2.3667,2.3679,2.3696,2.3716,2.3751,2.3764,2.375,2.3796,2.3798,2.3785,2.3787,2.3778,2.3792,2.379,2.379,2.379,0,2.3261,2.3303,2.3356,2.3414,2.343,2.3456,2.3503,2.3535,2.3581,2.3602,2.3634,2.366,2.3696,2.3701,2.3751,2.3741,2.3762,2.3782,2.3784,2.379,2.3795,2.3794,2.3797,2.3799,2.3795,2.3794,2.3794,0,2.3241,2.331,2.3351,2.3374,2.3442,2.346,2.3489,2.3535,2.3561,2.3602,2.3619,2.3662,2.3686,2.3719,2.3756,2.3756,2.3802,2.381,2.382,2.3819,2.3829,2.3828,2.3836,2.3841,2.3841,2.3841,2.3841,0,2.325,2.328,2.3344,2.3369,2.3404,2.3448,2.3481,2.3512,2.3553,2.3584,2.3616,2.3644,2.3692,2.3725,2.3754,2.3792,2.3802,2.3819,2.3827,2.3817,2.3815,2.3832,2.3832,2.3842,2.3841,2.3841,2.3841,0,2.3234,2.3277,2.3324,2.3385,2.3401,2.3425,2.3477,2.3502,2.3534,2.3573,2.3584,2.3635,2.3676,2.3716,2.3771,2.379,2.3828,2.3837,2.3813,2.3818,2.3826,2.3825,2.3845,2.3851,2.3851,2.3851,2.3851,0,2.3237,2.3262,2.3326,2.3351,2.3379,2.3417,2.3445,2.3489,2.3516,2.357,2.3589,2.3633,2.367,2.3734,2.3775,2.3817,2.3828,2.3832,2.3834,2.3824,2.3829,2.3828,2.383,2.3831,2.3831,2.3831,2.3831,0,2.3238,2.3259,2.3299,2.3346,2.3379,2.3418,2.3458,2.3475,2.3526,2.3555,2.3598,2.3628,2.3685,2.3728,2.3775,2.3803,2.3825,2.383,2.3835,2.3825,2.3811,2.382,2.3811,2.3829,2.3829,2.3829,2.3829,2.383,2.3233,2.3257,2.3307,2.335,2.3385,2.3422,2.3449,2.3486,2.3523,2.3575,2.3597,2.3641,2.3686,2.3752,2.378,2.3814,2.3819,2.3826,2.3828,2.3829,2.3827,2.3805,2.3822,2.3822,2.3822,2.3822,2.3823,0,2.3237,2.3271,2.3311,2.3366,2.34,2.342,2.3465,2.3492,2.3531,2.3572,2.3609,2.3659,2.3701,2.3745,2.379,2.3808,2.382,2.3819,2.3818,2.3824,2.3819,2.3811,2.3809,2.3809,2.3809,2.3809,2.3809,2.3809,2.3243,2.3286,2.3312,2.3372,2.3405,2.3451,2.3475,2.3509,2.3542,2.3597,2.3633,2.3662,2.3704,2.3752,2.3791,2.3803,2.3818,2.3814,2.3829,2.3824,2.3824,2.3825,2.3818,2.3817,2.3817,2.3831,2.3831,2.3831]}]]